,,Stat6,,Stat2,,Stat8,,Stat9,,Stat10,,Wind1,,Wind1,
time,status,PA1M_AVG,status,PR1M_SUM,status,RH1M_AVG,status,SR1M_AVG,status,TA1M_AVG,status,W1dAve1m,status,W1sAve1m,
2005-04-12, 00:00:00,VALID,918.725,VALID,0,VALID,99.6111,VALID,-0.101885,VALID,20.6064,VALID,8,VALID,1.08114,
2005-04-12, 00:01:00,VALID,918.706,VALID,0,VALID,99.6849,VALID,-0.101885,VALID,20.6031,VALID,2,VALID,0.945845,
2005-04-12, 00:02:00,VALID,918.695,VALID,0,VALID,99.737,VALID,-0.0679233,VALID,20.623,VALID,6,VALID,0.960556,
2005-04-12, 00:03:00,VALID,918.665,VALID,0,VALID,99.7688,VALID,-0.0849042,VALID,20.6223,VALID,8,VALID,0.928961,
2005-04-12, 00:04:00,VALID,918.656,VALID,0,VALID,99.7777,VALID,-0.0509425,VALID,20.6319,VALID,360,VALID,1.29563,
2005-04-12, 00:05:00,VALID,918.637,VALID,0,VALID,99.7828,VALID,0.0339617,VALID,20.6374,VALID,12,VALID,1.10863,
2005-04-12, 00:06:00,VALID,918.615,VALID,0,VALID,99.7294,VALID,0.0169808,VALID,20.6468,VALID,8,VALID,1.24867,
2005-04-12, 00:07:00,VALID,918.589,VALID,0,VALID,99.6722,VALID,0.0169808,VALID,20.65,VALID,20,VALID,1.3918,
2005-04-12, 00:08:00,VALID,918.585,VALID,0,VALID,99.5628,VALID,0.0679233,VALID,20.6465,VALID,8,VALID,1.47154,
2005-04-12, 00:09:00,VALID,918.572,VALID,0,VALID,99.5527,VALID,0.0339617,VALID,20.6498,VALID,17,VALID,1.3274,
2005-04-12, 00:10:00,VALID,918.559,VALID,0,VALID,99.573,VALID,0.0169808,VALID,20.6667,VALID,357,VALID,1.33222,
2005-04-12, 00:11:00,VALID,918.563,VALID,0,VALID,99.587,VALID,0.0679233,VALID,20.6532,VALID,6,VALID,1.15465,
2005-04-12, 00:12:00,VALID,918.574,VALID,0,VALID,99.5743,VALID,0,VALID,20.6436,VALID,17,VALID,1.06917,
2005-04-12, 00:13:00,VALID,918.587,VALID,0,VALID,99.5972,VALID,0.0509425,VALID,20.6441,VALID,322,VALID,0.846294,
2005-04-12, 00:14:00,VALID,918.584,VALID,0,VALID,99.6213,VALID,0.0339617,VALID,20.6177,VALID,338,VALID,0.781808,
2005-04-12, 00:15:00,VALID,918.568,VALID,0,VALID,99.634,VALID,0,VALID,20.6016,VALID,7,VALID,1.14156,
2005-04-12, 00:16:00,VALID,918.554,VALID,0,VALID,99.6938,VALID,0,VALID,20.6053,VALID,3,VALID,0.759629,
2005-04-12, 00:17:00,VALID,918.534,VALID,0,VALID,99.6862,VALID,0,VALID,20.6118,VALID,346,VALID,0.744606,
2005-04-12, 00:18:00,VALID,918.519,VALID,0,VALID,99.7332,VALID,0,VALID,20.6078,VALID,2,VALID,0.628299,
2005-04-12, 00:19:00,VALID,918.507,VALID,0,VALID,99.737,VALID,0.0169808,VALID,20.6078,VALID,335,VALID,0.945499,
2005-04-12, 00:20:00,VALID,918.498,VALID,0,VALID,99.737,VALID,-0.0509425,VALID,20.6295,VALID,346,VALID,0.48971,
2005-04-12, 00:21:00,VALID,918.506,VALID,0,VALID,99.7701,VALID,-0.0849042,VALID,20.6357,VALID,354,VALID,0.195475,
2005-04-12, 00:22:00,VALID,918.489,VALID,0,VALID,99.8171,VALID,-0.0679233,VALID,20.6451,VALID,353,VALID,0.162157,
2005-04-12, 00:23:00,VALID,918.468,VALID,0,VALID,99.8451,VALID,-0.0509425,VALID,20.6682,VALID,353,VALID,0.311061,
2005-04-12, 00:24:00,VALID,918.437,VALID,0,VALID,99.7866,VALID,-0.0509425,VALID,20.6841,VALID,352,VALID,0.54652,
2005-04-12, 00:25:00,VALID,918.393,VALID,0,VALID,99.7002,VALID,-0.0509425,VALID,20.668,VALID,8,VALID,0.954545,
2005-04-12, 00:26:00,VALID,918.39,VALID,0,VALID,99.6735,VALID,-0.0849042,VALID,20.6779,VALID,12,VALID,0.384511,
2005-04-12, 00:27:00,VALID,918.389,VALID,0,VALID,99.6239,VALID,-0.0679233,VALID,20.6777,VALID,7,VALID,0.0824653,
2005-04-12, 00:28:00,VALID,918.374,VALID,0,VALID,99.6595,VALID,-0.0679233,VALID,20.6876,VALID,7,VALID,0.290879,
2005-04-12, 00:29:00,VALID,918.383,VALID,0,VALID,99.6353,VALID,-0.0509425,VALID,20.7035,VALID,294,VALID,0.434152,
2005-04-12, 00:30:00,VALID,918.367,VALID,0,VALID,99.5959,VALID,-0.0679233,VALID,20.7102,VALID,340,VALID,0.364524,
2005-04-12, 00:31:00,VALID,918.365,VALID,0,VALID,99.5425,VALID,-0.101885,VALID,20.6941,VALID,352,VALID,0.0754654,
2005-04-12, 00:32:00,VALID,918.357,VALID,0,VALID,99.5412,VALID,-0.0679233,VALID,20.7033,VALID,352,VALID,0.0180432,
2005-04-12, 00:33:00,VALID,918.345,VALID,0,VALID,99.4954,VALID,-0.0849042,VALID,20.6938,VALID,352,VALID,0.158918,
2005-04-12, 00:34:00,VALID,918.318,VALID,0,VALID,99.4636,VALID,-0.0509425,VALID,20.7005,VALID,352,VALID,0.191493,
2005-04-12, 00:35:00,VALID,918.311,VALID,0,VALID,99.4598,VALID,-0.101885,VALID,20.7035,VALID,352,VALID,0.374273,
2005-04-12, 00:36:00,VALID,918.313,VALID,0,VALID,99.3187,VALID,-0.0849042,VALID,20.7011,VALID,352,VALID,0.108648,
2005-04-12, 00:37:00,VALID,918.314,VALID,0,VALID,99.2564,VALID,-0.101885,VALID,20.6747,VALID,352,VALID,0.116257,
2005-04-12, 00:38:00,VALID,918.315,VALID,0,VALID,99.3327,VALID,-0.0849042,VALID,20.6645,VALID,354,VALID,0.272727,
2005-04-12, 00:39:00,VALID,918.334,VALID,0,VALID,99.4039,VALID,-0.101885,VALID,20.6911,VALID,354,VALID,0.229167,
2005-04-12, 00:40:00,VALID,918.331,VALID,0,VALID,99.3873,VALID,-0.0679233,VALID,20.6836,VALID,354,VALID,0.00545058,
2005-04-12, 00:41:00,VALID,918.346,VALID,0,VALID,99.3848,VALID,-0.0849042,VALID,20.6943,VALID,354,VALID,0.00800781,
2005-04-12, 00:42:00,VALID,918.345,VALID,0,VALID,99.325,VALID,-0.0849042,VALID,20.6772,VALID,26,VALID,0.36849,
2005-04-12, 00:43:00,VALID,918.358,VALID,0,VALID,99.3161,VALID,-0.0679233,VALID,20.668,VALID,36,VALID,0,
2005-04-12, 00:44:00,VALID,918.371,VALID,0,VALID,99.3543,VALID,-0.101885,VALID,20.6682,VALID,36,VALID,0.00109012,
2005-04-12, 00:45:00,VALID,918.36,VALID,0,VALID,99.3149,VALID,-0.0679233,VALID,20.6715,VALID,36,VALID,0.0543403,
2005-04-12, 00:46:00,VALID,918.358,VALID,0,VALID,99.4115,VALID,-0.0849042,VALID,20.6618,VALID,36,VALID,0.100654,
2005-04-12, 00:47:00,VALID,918.348,VALID,0,VALID,99.5043,VALID,-0.101885,VALID,20.6717,VALID,35,VALID,0.0802734,
2005-04-12, 00:48:00,VALID,918.329,VALID,0,VALID,99.4471,VALID,-0.0679233,VALID,20.6648,VALID,33,VALID,0.40253,
2005-04-12, 00:49:00,VALID,918.318,VALID,0,VALID,99.4115,VALID,-0.0509425,VALID,20.6516,VALID,28,VALID,0.622582,
2005-04-12, 00:50:00,VALID,918.32,VALID,0,VALID,99.484,VALID,0.0169808,VALID,20.6508,VALID,8,VALID,0.432355,
2005-04-12, 00:51:00,VALID,918.311,VALID,0,VALID,99.4954,VALID,0.0169808,VALID,20.654,VALID,1,VALID,0.0132631,
2005-04-12, 00:52:00,VALID,918.298,VALID,0,VALID,99.5005,VALID,0,VALID,20.6637,VALID,325,VALID,0.119186,
2005-04-12, 00:53:00,VALID,918.287,VALID,0,VALID,99.4229,VALID,0,VALID,20.6341,VALID,231,VALID,0.308036,
2005-04-12, 00:54:00,VALID,918.28,VALID,0,VALID,99.4306,VALID,0.0169808,VALID,20.6478,VALID,231,VALID,0.24782,
2005-04-12, 00:55:00,VALID,918.276,VALID,0,VALID,99.4242,VALID,0.0169808,VALID,20.6409,VALID,340,VALID,0.450521,
2005-04-12, 00:56:00,VALID,918.261,VALID,0,VALID,99.3072,VALID,0.0169808,VALID,20.6409,VALID,45,VALID,0.294829,
2005-04-12, 00:57:00,VALID,918.26,VALID,0,VALID,99.3517,VALID,0.0169808,VALID,20.6339,VALID,30,VALID,0.233803,
2005-04-12, 00:58:00,VALID,918.243,VALID,0,VALID,99.3314,VALID,0.0509425,VALID,20.6538,VALID,47,VALID,0.175426,
2005-04-12, 00:59:00,VALID,918.229,VALID,0,VALID,99.2589,VALID,0.0169808,VALID,20.6505,VALID,63,VALID,0.215376,
2005-04-12, 01:00:00,VALID,918.223,VALID,0,VALID,99.2551,VALID,0.0339617,VALID,20.6409,VALID,56,VALID,0.356898,
2005-04-12, 01:01:00,VALID,918.202,VALID,0,VALID,99.2691,VALID,0.0339617,VALID,20.6511,VALID,46,VALID,0.224077,
2005-04-12, 01:02:00,VALID,918.195,VALID,0,VALID,99.2729,VALID,0.0169808,VALID,20.6538,VALID,46,VALID,0.115513,
2005-04-12, 01:03:00,VALID,918.163,VALID,0,VALID,99.2271,VALID,0,VALID,20.647,VALID,46,VALID,0,
2005-04-12, 01:04:00,VALID,918.123,VALID,0,VALID,99.1712,VALID,0.0169808,VALID,20.6505,VALID,46,VALID,0.241461,
2005-04-12, 01:05:00,VALID,918.113,VALID,0,VALID,99.1152,VALID,0.0339617,VALID,20.6414,VALID,46,VALID,0.333651,
2005-04-12, 01:06:00,VALID,918.054,VALID,0,VALID,99.1203,VALID,0,VALID,20.6309,VALID,45,VALID,0.394717,
2005-04-12, 01:07:00,VALID,918.05,VALID,0,VALID,99.0618,VALID,0.0169808,VALID,20.6021,VALID,33,VALID,0.557031,
2005-04-12, 01:08:00,VALID,918.039,VALID,0,VALID,99.0364,VALID,0.0679233,VALID,20.579,VALID,26,VALID,0.658794,
2005-04-12, 01:09:00,VALID,918.026,VALID,0,VALID,99.0237,VALID,0.0509425,VALID,20.5601,VALID,26,VALID,0.564174,
2005-04-12, 01:10:00,VALID,918.018,VALID,0,VALID,98.9753,VALID,0.0169808,VALID,20.5117,VALID,26,VALID,0.562119,
2005-04-12, 01:11:00,VALID,917.993,VALID,0,VALID,99.0631,VALID,0.0849042,VALID,20.4891,VALID,27,VALID,0.794017,
2005-04-12, 01:12:00,VALID,917.985,VALID,0,VALID,99.2729,VALID,0.0339617,VALID,20.4858,VALID,22,VALID,0.932106,
2005-04-12, 01:13:00,VALID,917.974,VALID,0,VALID,99.395,VALID,0.0679233,VALID,20.4953,VALID,351,VALID,0.708629,
2005-04-12, 01:14:00,VALID,917.972,VALID,0,VALID,99.4967,VALID,0.0509425,VALID,20.5082,VALID,8,VALID,0.775391,
2005-04-12, 01:15:00,VALID,917.965,VALID,0,VALID,99.5247,VALID,0.0339617,VALID,20.5079,VALID,23,VALID,0.824574,
2005-04-12, 01:16:00,VALID,917.961,VALID,0,VALID,99.5946,VALID,0.0169808,VALID,20.5249,VALID,359,VALID,0.394717,
2005-04-12, 01:17:00,VALID,917.948,VALID,0,VALID,99.5768,VALID,0.0339617,VALID,20.5241,VALID,1,VALID,0.214286,
2005-04-12, 01:18:00,VALID,917.94,VALID,0,VALID,99.5603,VALID,0.0169808,VALID,20.5475,VALID,13,VALID,0.574929,
2005-04-12, 01:19:00,VALID,917.932,VALID,0,VALID,99.5476,VALID,0,VALID,20.5639,VALID,15,VALID,0.813902,
2005-04-12, 01:20:00,VALID,917.936,VALID,0,VALID,99.512,VALID,-0.0169808,VALID,20.5644,VALID,15,VALID,0.514535,
2005-04-12, 01:21:00,VALID,917.923,VALID,0,VALID,99.4776,VALID,-0.0339617,VALID,20.5808,VALID,15,VALID,0.738554,
2005-04-12, 01:22:00,VALID,917.912,VALID,0,VALID,99.414,VALID,-0.0509425,VALID,20.584,VALID,19,VALID,0.394903,
2005-04-12, 01:23:00,VALID,917.911,VALID,0,VALID,99.4013,VALID,-0.0339617,VALID,20.5798,VALID,19,VALID,0.441493,
2005-04-12, 01:24:00,VALID,917.909,VALID,0,VALID,99.3263,VALID,-0.0509425,VALID,20.6104,VALID,22,VALID,0.581174,
2005-04-12, 01:25:00,VALID,917.921,VALID,0,VALID,99.2602,VALID,-0.101885,VALID,20.6007,VALID,25,VALID,0.123047,
2005-04-12, 01:26:00,VALID,917.927,VALID,0,VALID,99.2157,VALID,-0.101885,VALID,20.6101,VALID,25,VALID,0.100852,
2005-04-12, 01:27:00,VALID,917.927,VALID,0,VALID,99.1928,VALID,-0.0679233,VALID,20.6066,VALID,25,VALID,0.114139,
2005-04-12, 01:28:00,VALID,917.932,VALID,0,VALID,99.2093,VALID,0,VALID,20.6171,VALID,25,VALID,0.0997024,
2005-04-12, 01:29:00,VALID,917.937,VALID,0,VALID,99.1674,VALID,-0.0509425,VALID,20.6357,VALID,25,VALID,0,
2005-04-12, 01:30:00,VALID,917.942,VALID,0,VALID,99.1038,VALID,-0.0509425,VALID,20.6354,VALID,25,VALID,0.127734,
2005-04-12, 01:31:00,VALID,917.948,VALID,0,VALID,99.0173,VALID,-0.0509425,VALID,20.626,VALID,25,VALID,0.25191,
2005-04-12, 01:32:00,VALID,917.935,VALID,0,VALID,99.0974,VALID,-0.0339617,VALID,20.6166,VALID,25,VALID,0.239329,
2005-04-12, 01:33:00,VALID,917.923,VALID,0,VALID,99.2411,VALID,-0.0849042,VALID,20.6104,VALID,25,VALID,0.334339,
2005-04-12, 01:34:00,VALID,917.893,VALID,0,VALID,99.2793,VALID,-0.0339617,VALID,20.6126,VALID,29,VALID,0.503049,
2005-04-12, 01:35:00,VALID,917.874,VALID,0,VALID,99.1254,VALID,0.0509425,VALID,20.6018,VALID,23,VALID,0.778888,
2005-04-12, 01:36:00,VALID,917.838,VALID,0,VALID,99.1101,VALID,0.0679233,VALID,20.5956,VALID,20,VALID,0.854911,
2005-04-12, 01:37:00,VALID,917.819,VALID,0,VALID,98.8266,VALID,0.0509425,VALID,20.5628,VALID,14,VALID,1.25095,
2005-04-12, 01:38:00,VALID,917.794,VALID,0,VALID,98.4286,VALID,0,VALID,20.5413,VALID,20,VALID,0.719866,
2005-04-12, 01:39:00,VALID,917.795,VALID,0,VALID,98.3446,VALID,0.0339617,VALID,20.5251,VALID,28,VALID,0.0250822,
2005-04-12, 01:40:00,VALID,917.801,VALID,0,VALID,98.4069,VALID,0.0339617,VALID,20.5184,VALID,28,VALID,0.00724085,
2005-04-12, 01:41:00,VALID,917.782,VALID,0,VALID,98.4629,VALID,0.0169808,VALID,20.5281,VALID,28,VALID,0.171148,
2005-04-12, 01:42:00,VALID,917.782,VALID,0,VALID,98.5061,VALID,0.0169808,VALID,20.5149,VALID,28,VALID,0,
2005-04-12, 01:43:00,VALID,917.78,VALID,0,VALID,98.5684,VALID,0.0509425,VALID,20.5214,VALID,20,VALID,0.114453,
2005-04-12, 01:44:00,VALID,917.765,VALID,0,VALID,98.3853,VALID,0.0509425,VALID,20.5146,VALID,359,VALID,0.334847,
2005-04-12, 01:45:00,VALID,917.751,VALID,0,VALID,98.4095,VALID,0.0679233,VALID,20.5074,VALID,359,VALID,0.509266,
2005-04-12, 01:46:00,VALID,917.739,VALID,0,VALID,98.4184,VALID,0.0679233,VALID,20.5084,VALID,346,VALID,0.679178,
2005-04-12, 01:47:00,VALID,917.736,VALID,0,VALID,98.4667,VALID,0.0339617,VALID,20.4794,VALID,357,VALID,0.879261,
2005-04-12, 01:48:00,VALID,917.735,VALID,0,VALID,98.5799,VALID,0.0679233,VALID,20.4471,VALID,352,VALID,0.790365,
2005-04-12, 01:49:00,VALID,917.721,VALID,0,VALID,98.6053,VALID,0.0169808,VALID,20.4183,VALID,10,VALID,0.68564,
2005-04-12, 01:50:00,VALID,917.723,VALID,0,VALID,98.8533,VALID,0,VALID,20.4277,VALID,8,VALID,0.474787,
2005-04-12, 01:51:00,VALID,917.708,VALID,0,VALID,99.0249,VALID,0,VALID,20.4441,VALID,19,VALID,0.598722,
2005-04-12, 01:52:00,VALID,917.704,VALID,0,VALID,99.1483,VALID,-0.0169808,VALID,20.47,VALID,26,VALID,0.647321,
2005-04-12, 01:53:00,VALID,917.703,VALID,0,VALID,99.2131,VALID,-0.0169808,VALID,20.4831,VALID,13,VALID,0.629076,
2005-04-12, 01:54:00,VALID,917.707,VALID,0,VALID,99.1356,VALID,0,VALID,20.4734,VALID,5,VALID,0.512355,
2005-04-12, 01:55:00,VALID,917.708,VALID,0,VALID,99.1419,VALID,-0.0169808,VALID,20.4732,VALID,4,VALID,0.872954,
2005-04-12, 01:56:00,VALID,917.684,VALID,0,VALID,98.9296,VALID,0,VALID,20.4312,VALID,1,VALID,1.25039,
2005-04-12, 01:57:00,VALID,917.685,VALID,0,VALID,98.866,VALID,-0.0339617,VALID,20.4027,VALID,357,VALID,1.05394,
2005-04-12, 01:58:00,VALID,917.682,VALID,0,VALID,98.5099,VALID,0,VALID,20.3537,VALID,348,VALID,1.22656,
2005-04-12, 01:59:00,VALID,917.679,VALID,0,VALID,98.4718,VALID,0,VALID,20.3184,VALID,343,VALID,0.876817,
2005-04-12, 02:00:00,VALID,917.681,VALID,0,VALID,98.6625,VALID,-0.0169808,VALID,20.2859,VALID,341,VALID,0.509375,
2005-04-12, 02:01:00,VALID,917.644,VALID,0,VALID,98.8558,VALID,0,VALID,20.27,VALID,15,VALID,0.734747,
2005-04-12, 02:02:00,VALID,917.629,VALID,0,VALID,98.9588,VALID,0,VALID,20.2608,VALID,10,VALID,0.718378,
2005-04-12, 02:03:00,VALID,917.597,VALID,0,VALID,99.002,VALID,0,VALID,20.2415,VALID,4,VALID,0.580729,
2005-04-12, 02:04:00,VALID,917.572,VALID,0,VALID,99.0567,VALID,-0.0339617,VALID,20.2221,VALID,27,VALID,0.594893,
2005-04-12, 02:05:00,VALID,917.582,VALID,0,VALID,99.0555,VALID,-0.0509425,VALID,20.1995,VALID,9,VALID,0.90346,
2005-04-12, 02:06:00,VALID,917.583,VALID,0,VALID,99.0771,VALID,-0.0169808,VALID,20.1831,VALID,8,VALID,0.230741,
2005-04-12, 02:07:00,VALID,917.59,VALID,0,VALID,99.0847,VALID,-0.0169808,VALID,20.157,VALID,8,VALID,0.213542,
2005-04-12, 02:08:00,VALID,917.6,VALID,0,VALID,99.0504,VALID,-0.0169808,VALID,20.1379,VALID,8,VALID,0.328869,
2005-04-12, 02:09:00,VALID,917.612,VALID,0,VALID,98.997,VALID,-0.0509425,VALID,20.1284,VALID,329,VALID,0.548473,
2005-04-12, 02:10:00,VALID,917.605,VALID,0,VALID,98.8189,VALID,-0.0169808,VALID,20.1123,VALID,343,VALID,0.584847,
2005-04-12, 02:11:00,VALID,917.595,VALID,0,VALID,98.899,VALID,-0.0339617,VALID,20.1158,VALID,11,VALID,1.06117,
2005-04-12, 02:12:00,VALID,917.578,VALID,0,VALID,98.9092,VALID,-0.0169808,VALID,20.119,VALID,1,VALID,1.49434,
2005-04-12, 02:13:00,VALID,917.586,VALID,0,VALID,98.9677,VALID,-0.0169808,VALID,20.1158,VALID,10,VALID,0.81955,
2005-04-12, 02:14:00,VALID,917.591,VALID,0,VALID,99.0135,VALID,0,VALID,20.1193,VALID,358,VALID,0.767531,
2005-04-12, 02:15:00,VALID,917.565,VALID,0,VALID,99.0377,VALID,-0.0169808,VALID,20.116,VALID,17,VALID,0.860465,
2005-04-12, 02:16:00,VALID,917.55,VALID,0,VALID,99.1139,VALID,-0.0169808,VALID,20.1125,VALID,19,VALID,0.928299,
2005-04-12, 02:17:00,VALID,917.544,VALID,0,VALID,99.1585,VALID,-0.0339617,VALID,20.1096,VALID,21,VALID,0.910866,
2005-04-12, 02:18:00,VALID,917.534,VALID,0,VALID,99.2131,VALID,-0.0339617,VALID,20.1093,VALID,26,VALID,0.80545,
2005-04-12, 02:19:00,VALID,917.512,VALID,0,VALID,99.2958,VALID,0.0169808,VALID,20.1088,VALID,26,VALID,0.839367,
2005-04-12, 02:20:00,VALID,917.514,VALID,0,VALID,99.3377,VALID,-0.0169808,VALID,20.0991,VALID,25,VALID,0.789426,
2005-04-12, 02:21:00,VALID,917.511,VALID,0,VALID,99.3466,VALID,-0.0169808,VALID,20.0899,VALID,25,VALID,0.166061,
2005-04-12, 02:22:00,VALID,917.532,VALID,0,VALID,99.3187,VALID,0,VALID,20.0735,VALID,25,VALID,0.00109012,
2005-04-12, 02:23:00,VALID,917.541,VALID,0,VALID,99.2793,VALID,0,VALID,20.0477,VALID,25,VALID,0,
2005-04-12, 02:24:00,VALID,917.54,VALID,0,VALID,99.1686,VALID,0.0169808,VALID,20.0152,VALID,24,VALID,0.122266,
2005-04-12, 02:25:00,VALID,917.538,VALID,0,VALID,99.0771,VALID,0,VALID,20.0033,VALID,12,VALID,0.144159,
2005-04-12, 02:26:00,VALID,917.531,VALID,0,VALID,99.0555,VALID,-0.0339617,VALID,19.9734,VALID,11,VALID,0.0456321,
2005-04-12, 02:27:00,VALID,917.504,VALID,0,VALID,99.0135,VALID,-0.0169808,VALID,19.9707,VALID,11,VALID,0,
2005-04-12, 02:28:00,VALID,917.503,VALID,0,VALID,98.899,VALID,-0.0339617,VALID,19.9382,VALID,11,VALID,0,
2005-04-12, 02:29:00,VALID,917.496,VALID,0,VALID,98.838,VALID,0,VALID,19.9123,VALID,11,VALID,0.147693,
2005-04-12, 02:30:00,VALID,917.47,VALID,0,VALID,98.7465,VALID,0,VALID,19.8768,VALID,11,VALID,0.325195,
2005-04-12, 02:31:00,VALID,917.46,VALID,0,VALID,98.7719,VALID,-0.0169808,VALID,19.8448,VALID,11,VALID,0.399182,
2005-04-12, 02:32:00,VALID,917.465,VALID,0,VALID,98.8482,VALID,-0.0339617,VALID,19.8023,VALID,10,VALID,0.544398,
2005-04-12, 02:33:00,VALID,917.464,VALID,0,VALID,99.058,VALID,-0.0169808,VALID,19.7961,VALID,6,VALID,0.43859,
2005-04-12, 02:34:00,VALID,917.462,VALID,0,VALID,99.1101,VALID,0.0169808,VALID,19.7703,VALID,6,VALID,0.284598,
2005-04-12, 02:35:00,VALID,917.469,VALID,0,VALID,99.1228,VALID,0.0509425,VALID,19.741,VALID,5,VALID,0.329241,
2005-04-12, 02:36:00,VALID,917.471,VALID,0,VALID,99.2347,VALID,0.0509425,VALID,19.7283,VALID,353,VALID,0.434952,
2005-04-12, 02:37:00,VALID,917.479,VALID,0,VALID,99.3441,VALID,0.0679233,VALID,19.7181,VALID,347,VALID,0.417791,
2005-04-12, 02:38:00,VALID,917.459,VALID,0,VALID,99.587,VALID,0.0339617,VALID,19.734,VALID,348,VALID,0.314368,
2005-04-12, 02:39:00,VALID,917.449,VALID,0,VALID,99.6874,VALID,0.0679233,VALID,19.7281,VALID,355,VALID,0.119655,
2005-04-12, 02:40:00,VALID,917.436,VALID,0,VALID,99.7383,VALID,0.0509425,VALID,19.7181,VALID,355,VALID,0.186547,
2005-04-12, 02:41:00,VALID,917.435,VALID,0,VALID,99.6569,VALID,0.0509425,VALID,19.7186,VALID,355,VALID,0.264915,
2005-04-12, 02:42:00,VALID,917.438,VALID,0,VALID,99.648,VALID,0.0679233,VALID,19.7012,VALID,354,VALID,0.365234,
2005-04-12, 02:43:00,VALID,917.428,VALID,0,VALID,99.9461,VALID,0.0679233,VALID,19.7444,VALID,324,VALID,0.38125,
2005-04-12, 02:44:00,VALID,917.439,VALID,0,VALID,100,VALID,0.0509425,VALID,19.7633,VALID,327,VALID,0.394627,
2005-04-12, 02:45:00,VALID,917.43,VALID,0,VALID,100,VALID,0.0169808,VALID,19.7829,VALID,346,VALID,0.419085,
2005-04-12, 02:46:00,VALID,917.435,VALID,0,VALID,100,VALID,0.0509425,VALID,19.7859,VALID,16,VALID,0.37429,
2005-04-12, 02:47:00,VALID,917.427,VALID,0,VALID,100,VALID,0.0679233,VALID,19.7897,VALID,16,VALID,0.261446,
2005-04-12, 02:48:00,VALID,917.411,VALID,0,VALID,99.9313,VALID,0.0849042,VALID,19.7668,VALID,16,VALID,0.0820313,
2005-04-12, 02:49:00,VALID,917.396,VALID,0,VALID,99.8731,VALID,0,VALID,19.7377,VALID,16,VALID,0.321555,
2005-04-12, 02:50:00,VALID,917.382,VALID,0,VALID,99.7752,VALID,0.0339617,VALID,19.7253,VALID,16,VALID,0.294744,
2005-04-12, 02:51:00,VALID,917.382,VALID,0,VALID,99.7955,VALID,0.0169808,VALID,19.7124,VALID,16,VALID,0.248698,
2005-04-12, 02:52:00,VALID,917.379,VALID,0,VALID,99.8909,VALID,0.0509425,VALID,19.6928,VALID,16,VALID,0.0619549,
2005-04-12, 02:53:00,VALID,917.374,VALID,0,VALID,99.9868,VALID,0.0339617,VALID,19.6955,VALID,16,VALID,0.140803,
2005-04-12, 02:54:00,VALID,917.367,VALID,0,VALID,100,VALID,0.0679233,VALID,19.7186,VALID,16,VALID,0.259909,
2005-04-12, 02:55:00,VALID,917.351,VALID,0,VALID,100,VALID,0.0339617,VALID,19.7216,VALID,16,VALID,0.248001,
2005-04-12, 02:56:00,VALID,917.326,VALID,0,VALID,100,VALID,0.0339617,VALID,19.7318,VALID,15,VALID,0.151786,
2005-04-12, 02:57:00,VALID,917.304,VALID,0,VALID,100,VALID,0.0339617,VALID,19.7246,VALID,15,VALID,0.0757068,
2005-04-12, 02:58:00,VALID,917.294,VALID,0,VALID,100,VALID,0.0509425,VALID,19.7062,VALID,15,VALID,0.120722,
2005-04-12, 02:59:00,VALID,917.284,VALID,0,VALID,99.9791,VALID,0.0339617,VALID,19.6707,VALID,15,VALID,0.0487847,
2005-04-12, 03:00:00,VALID,917.279,VALID,0,VALID,100,VALID,0.0169808,VALID,19.6543,VALID,15,VALID,0,
2005-04-12, 03:01:00,VALID,917.289,VALID,0,VALID,100,VALID,0.0339617,VALID,19.6282,VALID,15,VALID,0.0012718,
2005-04-12, 03:02:00,VALID,917.293,VALID,0,VALID,100,VALID,0.0169808,VALID,19.6153,VALID,15,VALID,0,
2005-04-12, 03:03:00,VALID,917.3,VALID,0,VALID,100,VALID,0.0679233,VALID,19.6247,VALID,15,VALID,0,
2005-04-12, 03:04:00,VALID,917.298,VALID,0,VALID,100,VALID,0.0169808,VALID,19.6481,VALID,15,VALID,0.00109012,
2005-04-12, 03:05:00,VALID,917.3,VALID,0,VALID,100,VALID,0.0679233,VALID,19.6218,VALID,15,VALID,0,
2005-04-12, 03:06:00,VALID,917.283,VALID,0,VALID,100,VALID,0.0339617,VALID,19.5895,VALID,15,VALID,0.107118,
2005-04-12, 03:07:00,VALID,917.276,VALID,0,VALID,100,VALID,0.0339617,VALID,19.6153,VALID,3,VALID,0.433966,
2005-04-12, 03:08:00,VALID,917.27,VALID,0,VALID,100,VALID,0,VALID,19.5927,VALID,2,VALID,0.140811,
2005-04-12, 03:09:00,VALID,917.259,VALID,0,VALID,100,VALID,0,VALID,19.5927,VALID,360,VALID,0.301736,
2005-04-12, 03:10:00,VALID,917.268,VALID,0,VALID,100,VALID,0.0169808,VALID,19.5897,VALID,360,VALID,0.289807,
2005-04-12, 03:11:00,VALID,917.297,VALID,0,VALID,100,VALID,0.0339617,VALID,19.5892,VALID,352,VALID,0.380609,
2005-04-12, 03:12:00,VALID,917.296,VALID,0,VALID,100,VALID,0.0339617,VALID,19.6091,VALID,335,VALID,0.443452,
2005-04-12, 03:13:00,VALID,917.316,VALID,0,VALID,100,VALID,0.0169808,VALID,19.6386,VALID,322,VALID,0.542492,
2005-04-12, 03:14:00,VALID,917.321,VALID,0,VALID,100,VALID,0.0339617,VALID,19.6322,VALID,341,VALID,0.440234,
2005-04-12, 03:15:00,VALID,917.323,VALID,0,VALID,100,VALID,0.0169808,VALID,19.6282,VALID,337,VALID,0.305088,
2005-04-12, 03:16:00,VALID,917.348,VALID,0,VALID,100,VALID,0.0679233,VALID,19.6287,VALID,337,VALID,0.295117,
2005-04-12, 03:17:00,VALID,917.368,VALID,0,VALID,100,VALID,0.0169808,VALID,19.6031,VALID,337,VALID,0.431402,
2005-04-12, 03:18:00,VALID,917.367,VALID,0,VALID,100,VALID,-0.0679233,VALID,19.5684,VALID,337,VALID,0.34593,
2005-04-12, 03:19:00,VALID,917.386,VALID,0,VALID,100,VALID,-0.0339617,VALID,19.5517,VALID,337,VALID,0.382626,
2005-04-12, 03:20:00,VALID,917.379,VALID,0,VALID,100,VALID,0,VALID,19.5515,VALID,337,VALID,0.261905,
2005-04-12, 03:21:00,VALID,917.384,VALID,0,VALID,100,VALID,0,VALID,19.5378,VALID,335,VALID,0.387386,
2005-04-12, 03:22:00,VALID,917.4,VALID,0,VALID,100,VALID,-0.0169808,VALID,19.5286,VALID,308,VALID,0.454297,
2005-04-12, 03:23:00,VALID,917.392,VALID,0,VALID,100,VALID,-0.0169808,VALID,19.5157,VALID,328,VALID,0.470982,
2005-04-12, 03:24:00,VALID,917.398,VALID,0,VALID,100,VALID,-0.0169808,VALID,19.5058,VALID,313,VALID,0.185826,
2005-04-12, 03:25:00,VALID,917.392,VALID,0,VALID,100,VALID,0,VALID,19.4996,VALID,311,VALID,0,
2005-04-12, 03:26:00,VALID,917.377,VALID,0,VALID,100,VALID,0,VALID,19.4444,VALID,311,VALID,0.22066,
2005-04-12, 03:27:00,VALID,917.382,VALID,0,VALID,100,VALID,0,VALID,19.4285,VALID,311,VALID,0.0706759,
2005-04-12, 03:28:00,VALID,917.392,VALID,0,VALID,100,VALID,0,VALID,19.4419,VALID,311,VALID,0.248095,
2005-04-12, 03:29:00,VALID,917.415,VALID,0,VALID,100,VALID,-0.0169808,VALID,19.4357,VALID,311,VALID,0.0601918,
2005-04-12, 03:30:00,VALID,917.422,VALID,0,VALID,100,VALID,-0.0509425,VALID,19.4357,VALID,311,VALID,0.0595238,
2005-04-12, 03:31:00,VALID,917.423,VALID,0,VALID,100,VALID,-0.0169808,VALID,19.4355,VALID,311,VALID,0,
2005-04-12, 03:32:00,VALID,917.398,VALID,0,VALID,100,VALID,-0.0339617,VALID,19.4591,VALID,311,VALID,0,
2005-04-12, 03:33:00,VALID,917.385,VALID,0,VALID,100,VALID,0,VALID,19.4549,VALID,311,VALID,0,
2005-04-12, 03:34:00,VALID,917.387,VALID,0,VALID,100,VALID,-0.0339617,VALID,19.4196,VALID,311,VALID,0,